Theta_e
321 319 322 333 337 336 343 344 342 348 347 343 344 347 348 348 349 347 346 338 332 332 330 328 326 324 325 326 327 328 329 329 324 323 322 323 324 325 324 324 323 323 323 323 324 324 325 325 325
318 321 328 335 336 337 339 341 347 347 345 339 343 348 349 350 348 348 346 335 332 332 332 331 330 329 327 325 324 324 323 323 323 324 324 324 323 322 322 324 327 329 329 327 324 323 323 323 323
318 325 328 326 332 338 340 342 344 339 338 339 345 349 348 349 346 343 340 333 333 333 333 333 333 330 328 326 325 324 324 324 324 324 323 322 324 328 334 335 335 335 335 335 335 334 333 333 334
321 328 328 328 337 338 339 340 340 338 340 341 346 347 347 347 341 342 339 334 332 333 334 334 331 328 327 326 324 324 323 323 323 324 327 331 335 336 339 337 336 334 333 333 334 332 332 332 332
320 325 326 335 339 339 338 340 341 339 339 341 342 346 348 347 345 337 335 333 333 334 334 329 326 325 324 323 324 324 324 326 332 335 336 337 338 339 339 338 335 335 333 333 332 334 333 332 331
320 321 322 332 334 340 339 338 340 336 335 338 344 347 347 346 344 338 329 331 333 329 326 324 324 324 326 326 327 328 331 333 335 336 337 338 339 339 339 338 337 336 335 335 336 336 336 336 337
317 315 320 321 338 341 339 339 335 333 336 342 344 345 347 345 341 326 327 328 328 325 325 327 331 335 337 337 337 338 338 338 337 335 336 335 335 337 338 338 338 337 337 336 336 337 336 336 337
320 313 318 325 339 338 339 336 337 339 343 344 343 343 348 345 340 330 333 328 328 329 335 339 340 340 340 340 340 340 339 339 337 337 337 336 335 334 336 337 338 337 338 337 337 337 337 337 337
319 312 315 317 336 332 338 337 341 344 343 343 344 343 344 345 341 334 338 337 335 339 341 341 342 342 342 341 341 340 339 338 338 338 336 333 332 332 333 335 337 337 338 337 336 337 337 337 336
313 312 314 315 327 333 338 338 341 344 343 343 342 343 343 346 342 339 342 342 339 340 341 342 342 342 340 341 339 338 338 338 338 336 332 330 327 329 331 331 331 332 336 337 336 336 336 336 335
312 313 314 317 326 335 338 336 342 345 342 343 343 343 344 346 344 340 344 344 342 341 341 342 342 341 342 341 340 339 338 338 335 332 325 319 317 316 316 317 322 327 329 330 331 333 334 334 334
315 313 315 317 323 337 336 336 339 345 344 344 343 342 343 347 344 341 344 344 343 342 342 342 343 343 342 341 339 338 338 334 330 318 314 313 313 313 312 312 311 311 312 314 320 324 326 326 327
313 314 314 317 322 331 338 337 338 342 344 345 343 342 343 346 344 342 345 345 344 344 342 342 343 342 341 339 338 337 333 325 316 314 313 313 314 314 313 313 312 312 311 311 310 311 313 315 318
314 315 315 315 329 336 336 337 340 343 344 344 342 342 343 345 345 344 345 346 345 344 342 340 341 340 340 338 337 330 320 315 314 314 314 314 314 313 313 312 311 311 310 311 312 312 312 312 312
317 318 325 334 336 337 337 339 338 343 342 343 343 343 344 345 345 345 346 345 345 344 342 342 340 339 337 333 326 319 315 314 314 314 314 314 313 313 312 311 308 309 310 312 313 313 313 313 313
317 313 315 329 336 336 336 338 337 343 343 343 343 343 343 344 345 345 345 344 342 340 338 335 334 333 330 322 317 315 314 313 314 314 314 313 313 312 310 308 310 312 313 313 313 314 314 313 314
311 316 316 338 335 336 335 339 335 342 343 343 343 342 342 342 341 341 340 339 339 338 335 330 329 325 319 315 315 314 313 313 314 314 314 313 312 309 307 311 312 312 312 313 312 314 313 313 319
316 317 317 319 338 336 337 338 335 342 342 341 341 341 341 340 340 335 338 338 335 332 329 323 320 316 315 316 314 312 312 313 314 314 313 312 308 308 311 311 311 311 311 311 310 312 312 313 314
316 317 317 316 326 337 338 338 338 341 341 339 339 339 338 339 337 332 338 336 331 329 327 320 315 316 316 315 312 312 312 313 313 312 309 307 308 310 310 311 310 310 310 309 309 311 311 314 315
316 316 315 315 315 332 326 337 337 341 342 339 338 338 337 337 336 337 337 333 330 328 325 317 315 316 315 313 312 311 311 311 310 307 307 308 310 310 310 310 310 310 309 309 308 311 310 310 313
315 315 316 317 330 327 339 343 342 340 341 338 338 339 336 339 336 335 334 332 330 326 320 315 316 316 315 313 311 310 310 309 307 307 308 309 309 309 309 308 308 308 307 306 306 309 309 309 309
318 315 317 317 319 318 330 326 345 340 341 336 337 337 336 336 334 334 334 331 329 323 316 315 315 316 316 313 311 310 309 307 307 308 309 309 308 307 306 307 306 307 306 306 305 307 307 308 307
318 319 319 318 315 323 326 328 336 341 345 341 337 336 335 333 334 333 334 332 328 320 315 315 316 316 316 313 310 309 308 307 308 308 308 308 308 307 306 305 305 305 306 305 305 305 305 305 305
319 318 314 315 320 324 323 326 325 345 343 341 340 336 334 333 332 332 332 329 325 317 315 315 315 316 315 312 309 308 308 308 308 308 308 308 307 307 306 306 306 306 306 306 305 305 304 304 305
316 314 315 316 318 321 320 324 323 335 338 340 339 337 332 333 330 332 331 327 324 321 317 315 315 316 315 312 309 308 308 307 307 308 308 307 307 307 307 306 305 306 307 307 305 305 304 304 304
317 315 316 319 317 316 321 326 325 330 332 336 338 338 332 331 329 332 331 327 326 324 319 317 316 316 315 311 309 308 307 306 307 307 306 307 307 307 307 307 306 306 306 307 305 304 304 304 304
319 317 314 315 316 318 318 325 327 331 331 333 336 334 329 328 330 330 329 328 327 325 323 320 317 317 315 312 309 307 306 305 304 305 306 307 307 307 307 307 307 306 306 306 305 305 304 304 303
318 316 319 314 321 323 320 328 325 334 332 329 331 329 327 327 328 329 329 327 327 326 323 320 318 318 315 312 308 307 306 305 302 304 305 303 304 306 307 307 307 306 300 301 306 305 304 299 300
318 317 316 315 316 318 319 321 322 326 331 330 329 331 328 329 330 330 328 327 327 325 323 320 319 318 316 312 308 308 307 304 304 306 307 307 306 305 307 306 304 303 298 298 304 305 303 301 301
318 318 315 318 319 318 317 318 318 322 328 329 329 331 331 331 331 329 328 327 326 325 323 320 319 319 316 313 309 308 306 305 306 307 307 307 307 307 306 304 304 303 298 299 302 304 304 302 302
Wind_Speed
4 6 3 2 4 5 1 2 2 4 1 3 5 7 2 3 1 2 15 9 9 9 10 9 8 7 7 6 6 5 4 4 4 5 4 4 3 4 4 5 5 5 5 4 3 3 2 2 2
4 2 2 3 4 3 3 3 6 6 1 7 4 8 5 2 3 11 12 10 9 10 10 10 9 8 7 7 7 7 6 5 5 4 4 4 4 5 6 6 6 5 4 4 3 2 2 3 4
3 2 1 4 3 4 5 5 4 7 4 2 4 7 4 5 8 10 10 12 12 12 11 10 8 7 7 8 7 7 7 6 5 5 5 5 5 6 6 4 3 4 5 5 5 5 5 5 5
2 3 4 4 2 3 5 6 5 3 1 5 8 5 6 3 10 9 14 14 14 14 12 10 8 8 8 8 8 8 8 7 6 6 5 5 5 5 5 4 5 6 6 6 6 7 8 8 9
3 2 4 3 1 3 4 7 14 3 1 5 3 5 7 10 8 11 14 15 15 14 13 12 11 11 11 11 10 9 8 7 6 6 4 4 4 4 3 4 4 5 5 5 5 5 5 5 5
3 3 4 2 4 2 2 9 11 5 3 5 5 9 5 6 10 12 15 15 14 14 14 14 14 13 12 11 10 9 8 6 4 4 4 5 6 7 7 7 8 8 7 7 7 8 7 6 6
6 4 4 4 3 3 6 14 5 7 8 6 13 4 7 15 14 16 17 16 15 16 16 16 15 15 12 11 10 8 6 5 4 6 7 9 9 10 11 11 12 12 10 10 10 11 10 10 9
6 5 4 3 5 5 10 13 7 10 5 7 20 5 8 22 18 20 19 18 17 18 17 16 15 13 12 10 7 5 4 3 5 7 10 13 13 13 13 13 12 12 12 13 13 12 12 12 11
7 5 3 6 6 4 13 5 10 7 10 11 23 4 18 26 22 24 23 21 20 19 18 16 14 12 9 7 5 2 1 4 7 11 13 14 13 12 13 14 15 15 15 15 16 16 16 15 14
4 4 10 7 7 5 13 13 18 6 12 6 14 9 25 28 26 27 25 22 21 20 17 14 11 10 8 5 3 1 4 7 11 13 14 13 11 12 13 14 16 17 18 18 19 20 20 20 19
5 6 5 8 15 5 17 12 17 11 5 19 23 26 29 32 30 29 25 22 21 19 16 14 13 11 8 6 4 2 5 10 13 13 11 11 13 14 14 15 16 17 18 19 20 23 24 24 24
4 8 9 6 14 9 13 20 9 17 9 24 24 28 32 36 35 33 28 24 22 18 15 14 14 13 10 7 5 5 8 10 11 9 9 10 13 15 16 17 19 20 22 22 22 22 23 23 23
3 3 12 14 13 19 18 15 8 15 12 22 24 32 36 38 38 33 27 24 22 18 12 11 12 11 8 8 7 7 8 8 9 11 13 15 18 20 20 21 22 22 21 21 22 23 24 24 23
9 5 6 8 7 10 11 5 11 12 17 24 30 34 36 40 38 33 28 25 22 18 16 14 12 11 10 11 8 7 7 8 10 13 16 19 21 22 22 23 23 22 22 20 19 20 22 22 22
3 2 3 4 9 5 15 2 7 15 23 31 33 36 35 36 34 32 30 26 21 19 16 15 14 14 12 10 6 6 7 9 12 14 17 20 21 23 25 26 23 19 16 16 16 16 16 17 17
1 4 2 1 4 8 9 11 6 23 29 26 26 22 23 29 32 32 30 26 22 18 14 14 13 11 8 6 4 6 9 12 14 16 18 21 23 25 25 21 18 18 17 17 15 13 14 16 16
6 1 2 2 4 5 3 3 7 27 25 18 18 18 22 25 23 19 21 20 17 14 12 13 12 11 9 6 5 7 10 12 14 16 18 20 21 21 18 18 17 19 18 16 17 14 18 19 14
1 3 2 1 7 6 6 5 5 26 21 23 22 24 28 29 26 7 19 18 18 17 16 14 13 12 9 7 5 7 9 11 13 15 17 18 16 14 15 16 17 17 16 15 15 14 15 11 16
2 2 2 3 7 5 13 10 11 19 22 23 27 29 34 39 26 18 25 24 20 17 16 15 14 12 9 5 4 6 9 10 12 15 15 12 12 13 12 12 12 15 15 17 16 11 14 11 9
3 2 5 3 5 8 4 13 4 18 24 36 36 37 34 32 30 25 27 27 23 19 16 16 14 10 6 3 4 6 8 9 11 9 8 9 12 11 10 11 13 13 16 19 18 11 13 17 11
4 4 5 6 1 2 5 3 3 6 10 16 26 34 28 37 36 34 29 27 22 18 17 16 14 10 5 3 4 6 7 8 6 7 9 11 12 12 12 12 13 13 17 20 18 15 13 16 17
4 7 6 4 5 4 5 4 6 4 8 9 20 25 28 33 35 34 32 30 22 19 18 16 13 9 5 3 5 6 5 3 6 9 11 11 11 11 10 10 11 12 15 17 18 16 15 14 17
9 3 2 3 4 3 3 3 4 8 13 18 26 28 30 32 37 34 33 27 20 20 20 17 13 9 5 2 4 4 3 6 8 10 12 11 10 12 12 13 13 16 16 16 17 18 17 17 16
3 3 5 4 3 1 6 6 4 11 25 24 19 29 32 34 32 31 29 25 22 22 20 18 14 10 5 1 3 3 4 6 9 11 10 9 8 12 13 13 14 15 15 15 16 15 17 18 17
4 6 4 4 3 5 2 4 8 17 10 22 24 28 34 40 35 33 33 29 26 24 22 19 15 11 6 1 2 2 4 7 9 10 8 7 6 6 8 10 11 7 8 8 10 12 14 16 15
3 7 5 4 3 6 3 6 6 4 14 13 14 27 32 37 38 35 36 33 28 24 22 20 17 13 8 2 1 2 5 6 7 7 5 6 5 3 4 5 10 7 9 9 7 9 11 9 9
2 2 5 5 3 1 3 5 4 4 4 5 18 30 35 39 39 38 39 34 29 26 23 20 18 15 9 4 3 5 6 6 5 6 6 4 3 3 2 3 5 8 8 7 5 8 12 8 8
6 6 2 2 2 4 4 4 5 5 9 6 11 24 32 37 39 37 39 37 31 27 23 21 18 13 9 5 5 6 6 7 8 11 10 6 2 3 1 2 5 10 10 4 3 7 10 8 7
3 2 2 4 5 5 3 6 9 13 15 17 14 24 35 41 41 40 40 39 34 30 26 23 22 17 11 7 7 6 7 9 10 10 9 7 8 4 2 6 6 8 9 4 1 3 5 9 8
2 5 5 4 7 3 4 6 5 11 11 18 22 29 35 38 39 37 39 41 39 34 31 27 25 18 12 8 7 8 8 10 11 8 5 4 2 6 8 4 6 8 9 6 4 2 4 7 9
Wind_Direction
344 333 320 81 52 69 74 227 267 239 193 174 131 106 103 86 4 224 143 137 150 150 130 120 116 120 130 137 136 138 135 119 108 105 104 99 85 66 52 38 31 26 24 21 12 357 339 317 301
326 330 110 90 84 84 256 253 233 246 187 161 112 103 76 67 97 138 157 144 146 143 129 121 113 109 111 115 120 120 116 111 106 101 94 77 63 55 51 48 42 38 26 15 7 343 314 300 293
327 161 188 94 109 156 188 227 224 249 175 328 80 59 86 119 126 142 147 151 153 142 128 122 119 120 118 116 113 109 106 102 96 82 76 78 77 76 67 55 24 352 342 334 328 320 305 294 286
157 154 70 84 141 235 204 197 209 261 91 55 94 92 93 68 125 140 142 151 151 141 136 132 130 125 119 113 110 110 109 105 106 103 92 85 73 61 35 18 0 347 332 308 305 304 301 294 288
178 154 67 74 259 250 273 175 177 203 278 144 146 134 102 143 138 137 141 148 149 141 138 136 133 128 124 122 119 114 109 103 89 72 56 38 23 7 343 322 328 339 339 332 307 299 302 304 297
166 103 66 167 253 228 261 166 175 237 218 158 109 116 120 174 161 147 142 143 145 140 139 136 131 127 123 120 121 114 109 100 84 54 24 358 339 325 309 308 307 308 312 311 309 303 306 313 310
149 95 188 149 236 293 188 174 206 186 193 171 149 112 136 157 159 144 142 141 147 144 140 136 135 129 129 128 130 133 119 88 50 20 359 342 325 312 304 298 291 289 292 296 296 292 291 296 289
178 92 113 200 196 250 159 167 184 174 194 169 164 176 166 168 165 150 144 144 150 146 145 143 142 137 139 137 132 132 107 59 7 346 337 328 315 303 296 294 296 292 288 288 287 286 282 284 286
160 74 166 207 169 219 154 135 163 158 160 142 173 175 181 172 171 160 153 156 158 158 156 156 152 149 151 152 146 143 348 345 339 332 326 323 316 310 301 296 293 289 285 282 282 280 279 279 278
114 129 202 202 201 188 172 147 164 164 168 165 180 218 180 176 178 171 166 166 168 172 169 168 168 174 183 179 183 347 313 326 323 326 329 329 323 313 303 297 292 289 284 282 282 281 280 278 276
157 170 200 230 211 216 156 156 168 158 210 200 180 165 175 181 183 183 178 178 181 180 181 183 190 201 208 212 237 263 300 315 320 325 329 329 328 322 317 311 303 296 291 288 283 280 280 280 278
136 214 188 215 225 168 160 174 181 196 205 206 203 187 181 185 188 190 187 185 187 190 194 195 202 210 214 224 243 274 296 303 308 317 325 326 326 327 325 320 313 308 304 301 298 295 291 288 287
183 196 203 231 215 208 157 175 182 213 207 191 193 185 186 187 191 193 192 189 191 195 189 182 184 196 212 228 253 281 297 305 313 322 330 334 337 339 338 334 330 326 321 312 305 301 298 297 294
195 210 238 227 210 182 141 154 171 208 204 189 188 184 187 191 194 195 196 192 188 191 192 186 194 206 228 253 268 281 287 300 311 324 331 338 341 341 340 337 333 328 324 324 323 320 316 312 302
224 203 113 45 162 156 131 37 223 183 179 171 174 183 187 191 193 196 194 195 194 194 201 206 210 219 226 237 245 264 290 306 320 327 336 340 340 343 344 344 345 349 349 345 338 334 335 327 317
55 55 51 57 119 166 161 226 204 176 170 168 171 166 176 190 194 198 197 198 196 203 215 217 210 211 221 229 262 294 306 314 320 329 335 339 341 344 347 354 5 13 12 5 3 1 357 353 348
4 128 58 42 141 164 192 224 170 176 172 151 148 155 176 191 196 198 199 194 197 203 209 200 195 197 198 204 247 285 297 306 316 325 333 336 341 348 2 17 21 19 16 19 18 16 2 6 72
193 53 2 234 201 189 193 262 192 180 153 145 153 171 188 193 195 258 213 210 201 196 195 196 189 192 191 205 250 286 297 305 318 327 333 341 359 20 36 33 28 21 16 11 11 16 10 13 79
146 194 229 255 187 135 213 218 201 165 156 151 164 179 194 198 182 209 205 208 205 201 196 198 196 192 198 216 264 291 300 312 325 333 340 9 31 47 45 40 29 21 22 20 16 30 18 56 108
179 232 258 298 223 180 186 245 153 181 187 179 182 192 195 186 190 184 199 199 201 209 200 197 194 192 196 238 286 300 307 324 333 351 27 48 56 53 44 39 36 25 16 14 30 48 33 34 42
208 195 217 196 176 359 110 331 153 193 193 204 204 208 194 199 190 187 197 195 200 207 203 196 195 192 198 260 310 324 325 341 21 61 72 72 65 54 45 40 31 32 27 37 47 49 42 51 48
278 206 231 198 142 228 182 267 227 201 210 205 219 209 199 197 202 191 191 194 197 203 200 199 199 198 216 294 336 340 356 45 93 88 85 81 69 51 37 34 45 47 44 46 51 46 44 46 52
229 192 240 273 175 114 197 104 255 161 220 228 219 210 209 200 204 193 194 197 198 203 199 202 204 206 226 303 348 6 54 108 106 102 102 96 73 50 72 60 62 64 64 55 52 51 44 40 42
272 36 47 58 100 90 232 160 223 184 216 226 222 211 203 206 203 202 193 196 198 198 204 205 208 211 223 323 9 46 98 109 115 123 119 104 83 61 75 78 73 71 66 53 45 47 46 46 50
81 55 347 346 3 218 38 104 236 216 237 218 210 200 194 208 203 201 194 195 198 201 204 205 208 212 216 261 41 88 112 122 132 139 130 106 97 76 65 57 39 54 48 39 46 42 40 38 44
164 142 155 245 240 254 83 208 250 276 236 220 215 198 192 204 207 202 199 196 200 203 204 207 207 207 209 198 204 159 146 143 146 149 137 119 117 92 61 50 31 43 32 40 37 45 28 27 36
327 210 190 130 2 53 236 291 320 331 315 150 170 175 188 197 204 201 200 197 200 203 204 202 201 199 200 207 198 164 165 158 157 151 134 147 138 89 56 28 12 11 359 9 12 6 11 9 35
167 168 289 1 207 254 290 284 232 246 235 193 181 184 187 194 201 201 202 199 201 203 199 196 198 199 203 204 174 176 172 161 140 125 106 104 164 226 259 12 348 344 359 334 333 344 3 21 59
342 282 76 140 146 185 223 257 219 208 200 203 201 194 191 199 203 202 202 200 201 200 197 195 195 198 200 198 182 185 184 171 160 143 122 98 72 57 269 320 339 356 5 15 60 348 8 19 40
139 62 65 20 290 211 169 270 244 220 199 189 198 199 204 206 201 204 203 200 201 199 197 196 197 197 197 199 193 189 188 170 161 149 139 143 100 50 32 359 3 3 20 56 92 29 345 3 12